Year,Month,Day,Hour,Minute,Value (Times are PST for temperature in C)
2017,03,31,00,00,4.90
2017,03,31,00,01,4.90
2017,03,31,00,02,4.90
2017,03,31,00,03,4.90
2017,03,31,00,04,4.90
2017,03,31,00,05,4.90
2017,03,31,00,06,4.90
2017,03,31,00,07,5.00
2017,03,31,00,08,5.00
2017,03,31,00,09,5.00
2017,03,31,00,10,5.00
2017,03,31,00,11,5.00
2017,03,31,00,12,4.90
2017,03,31,00,13,4.90
2017,03,31,00,14,4.90
2017,03,31,00,15,4.90
2017,03,31,00,16,4.90
2017,03,31,00,17,4.90
2017,03,31,00,18,4.90
2017,03,31,00,19,4.90
2017,03,31,00,20,4.90
2017,03,31,00,21,4.90
2017,03,31,00,22,4.90
2017,03,31,00,23,4.90
2017,03,31,00,24,4.90
2017,03,31,00,25,4.90
2017,03,31,00,26,4.90
2017,03,31,00,27,4.90
2017,03,31,00,28,4.90
2017,03,31,00,29,4.80
2017,03,31,00,30,4.80
2017,03,31,00,31,4.80
2017,03,31,00,32,4.80
2017,03,31,00,33,4.70
2017,03,31,00,34,4.70
2017,03,31,00,35,4.60
2017,03,31,00,36,4.60
2017,03,31,00,37,4.60
2017,03,31,00,38,4.60
2017,03,31,00,39,4.50
2017,03,31,00,40,4.50
2017,03,31,00,41,4.50
2017,03,31,00,42,4.50
2017,03,31,00,43,4.50
2017,03,31,00,44,4.40
2017,03,31,00,45,4.40
2017,03,31,00,46,4.40
2017,03,31,00,47,4.40
2017,03,31,00,48,4.40
2017,03,31,00,49,4.40
2017,03,31,00,50,4.30
2017,03,31,00,51,4.30
2017,03,31,00,52,4.30
2017,03,31,00,53,4.30
2017,03,31,00,54,4.40
2017,03,31,00,55,4.40
2017,03,31,00,56,4.40
2017,03,31,00,57,4.40
2017,03,31,00,58,4.40
2017,03,31,00,59,4.40
2017,03,31,01,00,4.40
2017,03,31,01,01,4.40
2017,03,31,01,02,4.40
2017,03,31,01,03,4.40
2017,03,31,01,04,4.40
2017,03,31,01,05,4.40
2017,03,31,01,06,4.40
2017,03,31,01,07,4.40
2017,03,31,01,08,4.40
2017,03,31,01,09,4.40
2017,03,31,01,10,4.40
2017,03,31,01,11,4.40
2017,03,31,01,12,4.40
2017,03,31,01,13,4.40
2017,03,31,01,14,4.40
2017,03,31,01,15,4.40
2017,03,31,01,16,4.40
2017,03,31,01,17,4.40
2017,03,31,01,18,4.40
2017,03,31,01,19,4.40
2017,03,31,01,20,4.40
2017,03,31,01,21,4.40
2017,03,31,01,22,4.40
2017,03,31,01,23,4.40
2017,03,31,01,24,4.40
2017,03,31,01,25,4.40
2017,03,31,01,26,4.30
2017,03,31,01,27,4.30
2017,03,31,01,28,4.30
2017,03,31,01,29,4.30
2017,03,31,01,30,4.30
2017,03,31,01,31,4.30
2017,03,31,01,32,4.30
2017,03,31,01,33,4.30
2017,03,31,01,34,4.30
2017,03,31,01,35,4.30
2017,03,31,01,36,4.30
2017,03,31,01,37,4.30
2017,03,31,01,38,4.30
2017,03,31,01,39,4.30
2017,03,31,01,40,4.30
2017,03,31,01,41,4.30
2017,03,31,01,42,4.30
2017,03,31,01,43,4.30
2017,03,31,01,44,4.30
2017,03,31,01,45,4.30
2017,03,31,01,46,4.30
2017,03,31,01,47,4.30
2017,03,31,01,48,4.30
2017,03,31,01,49,4.30
2017,03,31,01,50,4.30
2017,03,31,01,51,4.30
2017,03,31,01,52,4.20
2017,03,31,01,53,4.20
2017,03,31,01,54,4.20
2017,03,31,01,55,4.20
2017,03,31,01,56,4.20
2017,03,31,01,57,4.20
2017,03,31,01,58,4.20
2017,03,31,01,59,4.20
2017,03,31,02,00,4.20
2017,03,31,02,01,4.20
2017,03,31,02,02,4.20
2017,03,31,02,03,4.10
2017,03,31,02,04,4.10
2017,03,31,02,05,4.10
2017,03,31,02,06,4.10
2017,03,31,02,07,4.20
2017,03,31,02,08,4.20
2017,03,31,02,09,4.20
2017,03,31,02,10,4.20
2017,03,31,02,11,4.20
2017,03,31,02,12,4.20
2017,03,31,02,13,4.20
2017,03,31,02,14,4.20
2017,03,31,02,15,4.20
2017,03,31,02,16,4.20
2017,03,31,02,17,4.20
2017,03,31,02,18,4.20
2017,03,31,02,19,4.20
2017,03,31,02,20,4.20
2017,03,31,02,21,4.20
2017,03,31,02,22,4.20
2017,03,31,02,23,4.20
2017,03,31,02,24,4.20
2017,03,31,02,25,4.20
2017,03,31,02,26,4.20
2017,03,31,02,27,4.20
2017,03,31,02,28,4.20
2017,03,31,02,29,4.20
2017,03,31,02,30,4.20
2017,03,31,02,31,4.20
2017,03,31,02,32,4.10
2017,03,31,02,33,4.10
2017,03,31,02,34,4.10
2017,03,31,02,35,4.10
2017,03,31,02,36,4.00
2017,03,31,02,37,4.00
2017,03,31,02,38,3.90
2017,03,31,02,39,3.90
2017,03,31,02,40,3.80
2017,03,31,02,41,3.80
2017,03,31,02,42,3.80
2017,03,31,02,43,3.80
2017,03,31,02,44,3.70
2017,03,31,02,45,3.70
2017,03,31,02,46,3.70
2017,03,31,02,47,3.70
2017,03,31,02,48,3.70
2017,03,31,02,49,3.70
2017,03,31,02,50,3.70
2017,03,31,02,51,3.70
2017,03,31,02,52,3.70
2017,03,31,02,53,3.70
2017,03,31,02,54,3.70
2017,03,31,02,55,3.60
2017,03,31,02,56,3.60
2017,03,31,02,57,3.60
2017,03,31,02,58,3.60
2017,03,31,02,59,3.60
2017,03,31,03,00,3.60
2017,03,31,03,01,3.60
2017,03,31,03,02,3.60
2017,03,31,03,03,3.60
2017,03,31,03,04,3.60
2017,03,31,03,05,3.60
2017,03,31,03,06,3.60
2017,03,31,03,07,3.60
2017,03,31,03,08,3.60
2017,03,31,03,09,3.70
2017,03,31,03,10,3.70
2017,03,31,03,11,3.70
2017,03,31,03,12,3.70
2017,03,31,03,13,3.80
2017,03,31,03,14,3.80
2017,03,31,03,15,3.80
2017,03,31,03,16,3.80
2017,03,31,03,17,3.80
2017,03,31,03,18,3.80
2017,03,31,03,19,3.80
2017,03,31,03,20,3.80
2017,03,31,03,21,3.80
2017,03,31,03,22,3.80
2017,03,31,03,23,3.80
2017,03,31,03,24,3.80
2017,03,31,03,25,3.80
2017,03,31,03,26,3.80
2017,03,31,03,27,3.80
2017,03,31,03,28,3.80
2017,03,31,03,29,3.80
2017,03,31,03,30,3.80
2017,03,31,03,31,3.80
2017,03,31,03,32,3.80
2017,03,31,03,33,3.80
2017,03,31,03,34,3.80
2017,03,31,03,35,3.80
2017,03,31,03,36,3.80
2017,03,31,03,37,3.80
2017,03,31,03,38,3.80
2017,03,31,03,39,3.90
2017,03,31,03,40,3.90
2017,03,31,03,41,3.90
2017,03,31,03,42,3.90
2017,03,31,03,43,3.90
2017,03,31,03,44,3.90
2017,03,31,03,45,3.90
2017,03,31,03,46,3.90
2017,03,31,03,47,3.90
2017,03,31,03,48,3.90
2017,03,31,03,49,3.90
2017,03,31,03,50,3.90
2017,03,31,03,51,3.90
2017,03,31,03,52,3.90
2017,03,31,03,53,3.90
2017,03,31,03,54,3.90
2017,03,31,03,55,3.90
2017,03,31,03,56,3.90
2017,03,31,03,57,3.90
2017,03,31,03,58,3.90
2017,03,31,03,59,3.90
2017,03,31,04,00,3.90
2017,03,31,04,01,3.90
2017,03,31,04,02,3.90
2017,03,31,04,03,3.90
2017,03,31,04,04,3.90
2017,03,31,04,05,3.90
2017,03,31,04,06,3.90
2017,03,31,04,07,3.90
2017,03,31,04,08,3.90
2017,03,31,04,09,3.90
2017,03,31,04,10,3.90
2017,03,31,04,11,4.00
2017,03,31,04,12,4.00
2017,03,31,04,13,4.00
2017,03,31,04,14,4.00
2017,03,31,04,15,4.00
2017,03,31,04,16,4.00
2017,03,31,04,17,4.10
2017,03,31,04,18,4.10
2017,03,31,04,19,4.10
2017,03,31,04,20,4.10
2017,03,31,04,21,4.10
2017,03,31,04,22,4.10
2017,03,31,04,23,4.10
2017,03,31,04,24,4.10
2017,03,31,04,25,4.10
2017,03,31,04,26,4.20
2017,03,31,04,27,4.20
2017,03,31,04,28,4.20
2017,03,31,04,29,4.20
2017,03,31,04,30,4.20
2017,03,31,04,31,4.20
2017,03,31,04,32,4.20
2017,03,31,04,33,4.20
2017,03,31,04,34,4.20
2017,03,31,04,35,4.20
2017,03,31,04,36,4.20
2017,03,31,04,37,4.20
2017,03,31,04,38,4.20
2017,03,31,04,39,4.20
2017,03,31,04,40,4.20
2017,03,31,04,41,4.20
2017,03,31,04,42,4.20
2017,03,31,04,43,4.20
2017,03,31,04,44,4.20
2017,03,31,04,45,4.20
2017,03,31,04,46,4.20
2017,03,31,04,47,4.10
2017,03,31,04,48,4.10
2017,03,31,04,49,4.10
2017,03,31,04,50,4.10
2017,03,31,04,51,4.10
2017,03,31,04,52,4.10
2017,03,31,04,53,4.10
2017,03,31,04,54,4.10
2017,03,31,04,55,4.00
2017,03,31,04,56,4.00
2017,03,31,04,57,4.00
2017,03,31,04,58,4.00
2017,03,31,04,59,4.00
2017,03,31,05,00,4.00
2017,03,31,05,01,3.90
2017,03,31,05,02,3.90
2017,03,31,05,03,3.90
2017,03,31,05,04,3.90
2017,03,31,05,05,3.90
2017,03,31,05,06,3.90
2017,03,31,05,07,3.90
2017,03,31,05,08,3.90
2017,03,31,05,09,3.80
2017,03,31,05,10,3.80
2017,03,31,05,11,3.80
2017,03,31,05,12,3.80
2017,03,31,05,13,3.80
2017,03,31,05,14,3.80
2017,03,31,05,15,3.80
2017,03,31,05,16,3.70
2017,03,31,05,17,3.70
2017,03,31,05,18,3.70
2017,03,31,05,19,3.70
2017,03,31,05,20,3.60
2017,03,31,05,21,3.60
2017,03,31,05,22,3.60
2017,03,31,05,23,3.60
2017,03,31,05,24,3.50
2017,03,31,05,25,3.50
2017,03,31,05,26,3.50
2017,03,31,05,27,3.40
2017,03,31,05,28,3.40
2017,03,31,05,29,3.30
2017,03,31,05,30,3.30
2017,03,31,05,31,3.30
2017,03,31,05,32,3.30
2017,03,31,05,33,3.30
2017,03,31,05,34,3.30
2017,03,31,05,35,3.30
2017,03,31,05,36,3.30
2017,03,31,05,37,3.30
2017,03,31,05,38,3.30
2017,03,31,05,39,3.30
2017,03,31,05,40,3.30
2017,03,31,05,41,3.30
2017,03,31,05,42,3.30
2017,03,31,05,43,3.30
2017,03,31,05,44,3.30
2017,03,31,05,45,3.30
2017,03,31,05,46,3.30
2017,03,31,05,47,3.20
2017,03,31,05,48,3.20
2017,03,31,05,49,3.20
2017,03,31,05,50,3.20
2017,03,31,05,51,3.20
2017,03,31,05,52,3.20
2017,03,31,05,53,3.20
2017,03,31,05,54,3.10
2017,03,31,05,55,3.10
2017,03,31,05,56,3.10
2017,03,31,05,57,3.10
2017,03,31,05,58,3.10
2017,03,31,05,59,3.10
2017,03,31,06,00,3.10
2017,03,31,06,01,3.10
2017,03,31,06,02,3.10
2017,03,31,06,03,3.10
2017,03,31,06,04,3.10
2017,03,31,06,05,3.10
2017,03,31,06,06,3.10
2017,03,31,06,07,3.10
2017,03,31,06,08,3.10
2017,03,31,06,09,3.10
2017,03,31,06,10,3.10
2017,03,31,06,11,3.20
2017,03,31,06,12,3.20
2017,03,31,06,13,3.20
2017,03,31,06,14,3.20
2017,03,31,06,15,3.20
2017,03,31,06,16,3.20
2017,03,31,06,17,3.20
2017,03,31,06,18,3.20
2017,03,31,06,19,3.20
2017,03,31,06,20,3.20
2017,03,31,06,21,3.20
2017,03,31,06,22,3.20
2017,03,31,06,23,3.20
2017,03,31,06,24,3.10
2017,03,31,06,25,3.10
2017,03,31,06,26,3.10
2017,03,31,06,27,3.10
2017,03,31,06,28,3.20
2017,03,31,06,29,3.20
2017,03,31,06,30,3.20
2017,03,31,06,31,3.20
2017,03,31,06,32,3.20
2017,03,31,06,33,3.30
2017,03,31,06,34,3.30
2017,03,31,06,35,3.30
2017,03,31,06,36,3.30
2017,03,31,06,37,3.30
2017,03,31,06,38,3.30
2017,03,31,06,39,3.30
2017,03,31,06,40,3.30
2017,03,31,06,41,3.30
2017,03,31,06,42,3.30
2017,03,31,06,43,3.30
2017,03,31,06,44,3.30
2017,03,31,06,45,3.30
2017,03,31,06,46,3.30
2017,03,31,06,47,3.30
2017,03,31,06,48,3.30
2017,03,31,06,49,3.30
2017,03,31,06,50,3.30
2017,03,31,06,51,3.30
2017,03,31,06,52,3.30
2017,03,31,06,53,3.30
2017,03,31,06,54,3.30
2017,03,31,06,55,3.30
2017,03,31,06,56,3.30
2017,03,31,06,57,3.30
2017,03,31,06,58,3.30
2017,03,31,06,59,3.30
2017,03,31,07,00,3.30
2017,03,31,07,01,3.30
2017,03,31,07,02,3.30
2017,03,31,07,03,3.30
2017,03,31,07,04,3.30
2017,03,31,07,05,3.30
2017,03,31,07,06,3.30
2017,03,31,07,07,3.30
2017,03,31,07,08,3.40
2017,03,31,07,09,3.40
2017,03,31,07,10,3.40
2017,03,31,07,11,3.40
2017,03,31,07,12,3.40
2017,03,31,07,13,3.40
2017,03,31,07,14,3.40
2017,03,31,07,15,3.40
2017,03,31,07,16,3.50
2017,03,31,07,17,3.50
2017,03,31,07,18,3.50
2017,03,31,07,19,3.50
2017,03,31,07,20,3.60
2017,03,31,07,21,3.60
2017,03,31,07,22,3.60
2017,03,31,07,23,3.60
2017,03,31,07,24,3.60
2017,03,31,07,25,3.60
2017,03,31,07,26,3.70
2017,03,31,07,27,3.70
2017,03,31,07,28,3.70
2017,03,31,07,29,3.70
2017,03,31,07,30,3.70
2017,03,31,07,31,3.70
2017,03,31,07,32,3.80
2017,03,31,07,33,3.80
2017,03,31,07,34,3.80
2017,03,31,07,35,3.80
2017,03,31,07,36,3.80
2017,03,31,07,37,3.80
2017,03,31,07,38,3.80
2017,03,31,07,39,3.80
2017,03,31,07,40,3.90
2017,03,31,07,41,3.90
2017,03,31,07,42,3.90
2017,03,31,07,43,3.90
2017,03,31,07,44,3.90
2017,03,31,07,45,3.90
2017,03,31,07,46,3.90
2017,03,31,07,47,4.00
2017,03,31,07,48,4.00
2017,03,31,07,49,4.00
2017,03,31,07,50,4.00
2017,03,31,07,51,4.00
2017,03,31,07,52,4.00
2017,03,31,07,53,4.10
2017,03,31,07,54,4.10
2017,03,31,07,55,4.10
2017,03,31,07,56,4.10
2017,03,31,07,57,4.10
2017,03,31,07,58,4.10
2017,03,31,07,59,4.10
2017,03,31,08,00,4.10
2017,03,31,08,01,4.10
2017,03,31,08,02,4.10
2017,03,31,08,03,4.10
2017,03,31,08,04,4.10
2017,03,31,08,05,4.10
2017,03,31,08,06,4.10
2017,03,31,08,07,4.10
2017,03,31,08,08,4.10
2017,03,31,08,09,4.10
2017,03,31,08,10,4.10
2017,03,31,08,11,4.20
2017,03,31,08,12,4.20
2017,03,31,08,13,4.20
2017,03,31,08,14,4.30
2017,03,31,08,15,4.30
2017,03,31,08,16,4.30
2017,03,31,08,17,4.40
2017,03,31,08,18,4.40
2017,03,31,08,19,4.40
2017,03,31,08,20,4.50
2017,03,31,08,21,4.50
2017,03,31,08,22,4.50
2017,03,31,08,23,4.50
2017,03,31,08,24,4.50
2017,03,31,08,25,4.60
2017,03,31,08,26,4.60
2017,03,31,08,27,4.60
2017,03,31,08,28,4.60
2017,03,31,08,29,4.60
2017,03,31,08,30,4.60
2017,03,31,08,31,4.70
2017,03,31,08,32,4.70
2017,03,31,08,33,4.70
2017,03,31,08,34,4.70
2017,03,31,08,35,4.70
2017,03,31,08,36,4.80
2017,03,31,08,37,4.80
2017,03,31,08,38,4.80
2017,03,31,08,39,4.80
2017,03,31,08,40,4.90
2017,03,31,08,41,4.90
2017,03,31,08,42,4.90
2017,03,31,08,43,4.90
2017,03,31,08,44,4.90
2017,03,31,08,45,5.00
2017,03,31,08,46,5.00
2017,03,31,08,47,5.00
2017,03,31,08,48,5.10
2017,03,31,08,49,5.10
2017,03,31,08,50,5.10
2017,03,31,08,51,5.10
2017,03,31,08,52,5.20
2017,03,31,08,53,5.20
2017,03,31,08,54,5.20
2017,03,31,08,55,5.20
2017,03,31,08,56,5.20
2017,03,31,08,57,5.30
2017,03,31,08,58,5.30
2017,03,31,08,59,5.30
2017,03,31,09,00,5.30
2017,03,31,09,01,5.40
2017,03,31,09,02,5.40
2017,03,31,09,03,5.40
2017,03,31,09,04,5.40
2017,03,31,09,05,5.40
2017,03,31,09,06,5.50
2017,03,31,09,07,5.50
2017,03,31,09,08,5.50
2017,03,31,09,09,5.60
2017,03,31,09,10,5.60
2017,03,31,09,11,5.60
2017,03,31,09,12,5.70
2017,03,31,09,13,5.70
2017,03,31,09,14,5.70
2017,03,31,09,15,5.70
2017,03,31,09,16,5.70
2017,03,31,09,17,5.70
2017,03,31,09,18,5.80
2017,03,31,09,19,5.80
2017,03,31,09,20,5.90
2017,03,31,09,21,5.90
2017,03,31,09,22,6.00
2017,03,31,09,23,6.00
2017,03,31,09,24,6.10
2017,03,31,09,25,6.10
2017,03,31,09,26,6.20
2017,03,31,09,27,6.20
2017,03,31,09,28,6.30
2017,03,31,09,29,6.30
2017,03,31,09,30,6.30
2017,03,31,09,31,6.30
2017,03,31,09,32,6.40
2017,03,31,09,33,6.40
2017,03,31,09,34,6.50
2017,03,31,09,35,6.50
2017,03,31,09,36,6.60
2017,03,31,09,37,6.60
2017,03,31,09,38,6.70
2017,03,31,09,39,6.70
2017,03,31,09,40,6.80
2017,03,31,09,41,6.80
2017,03,31,09,42,6.80
2017,03,31,09,43,6.90
2017,03,31,09,44,6.90
2017,03,31,09,45,7.00
2017,03,31,09,46,7.00
2017,03,31,09,47,7.10
2017,03,31,09,48,7.10
2017,03,31,09,49,7.20
2017,03,31,09,50,7.20
2017,03,31,09,51,7.20
2017,03,31,09,52,7.20
2017,03,31,09,53,7.20
2017,03,31,09,54,7.30
2017,03,31,09,55,7.30
2017,03,31,09,56,7.30
2017,03,31,09,57,7.40
2017,03,31,09,58,7.40
2017,03,31,09,59,7.40
2017,03,31,10,00,7.40
2017,03,31,10,01,7.40
2017,03,31,10,02,7.50
2017,03,31,10,03,7.50
2017,03,31,10,04,7.50
2017,03,31,10,05,7.50
2017,03,31,10,06,7.40
2017,03,31,10,07,7.40
2017,03,31,10,08,7.50
2017,03,31,10,09,7.40
2017,03,31,10,10,7.40
2017,03,31,10,11,7.40
2017,03,31,10,12,7.40
2017,03,31,10,13,7.40
2017,03,31,10,14,7.50
2017,03,31,10,15,7.50
2017,03,31,10,16,7.50
2017,03,31,10,17,7.60
2017,03,31,10,18,7.60
2017,03,31,10,19,7.60
2017,03,31,10,20,7.60
2017,03,31,10,21,7.70
2017,03,31,10,22,7.70
2017,03,31,10,23,7.70
2017,03,31,10,24,7.70
2017,03,31,10,25,7.70
2017,03,31,10,26,7.70
2017,03,31,10,27,7.70
2017,03,31,10,28,7.80
2017,03,31,10,29,7.80
2017,03,31,10,30,7.80
2017,03,31,10,31,7.80
2017,03,31,10,32,7.80
2017,03,31,10,33,7.70
2017,03,31,10,34,7.70
2017,03,31,10,35,7.70
2017,03,31,10,36,7.70
2017,03,31,10,37,7.70
2017,03,31,10,38,7.70
2017,03,31,10,39,7.70
2017,03,31,10,40,7.70
2017,03,31,10,41,7.60
2017,03,31,10,42,7.60
2017,03,31,10,43,7.60
2017,03,31,10,44,7.60
2017,03,31,10,45,7.60
2017,03,31,10,46,7.60
2017,03,31,10,47,7.70
2017,03,31,10,48,7.70
2017,03,31,10,49,7.70
2017,03,31,10,50,7.70
2017,03,31,10,51,7.70
2017,03,31,10,52,7.70
2017,03,31,10,53,7.80
2017,03,31,10,54,7.80
2017,03,31,10,55,7.80
2017,03,31,10,56,7.90
2017,03,31,10,57,7.90
2017,03,31,10,58,7.90
2017,03,31,10,59,7.90
2017,03,31,11,00,7.90
2017,03,31,11,01,7.90
2017,03,31,11,02,7.90
2017,03,31,11,03,8.00
2017,03,31,11,04,8.00
2017,03,31,11,05,8.00
2017,03,31,11,06,8.00
2017,03,31,11,07,8.00
2017,03,31,11,08,8.10
2017,03,31,11,09,8.10
2017,03,31,11,10,8.10
2017,03,31,11,11,8.00
2017,03,31,11,12,8.00
2017,03,31,11,13,7.90
2017,03,31,11,14,7.90
2017,03,31,11,15,7.90
2017,03,31,11,16,7.90
2017,03,31,11,17,7.90
2017,03,31,11,18,7.80
2017,03,31,11,19,7.80
2017,03,31,11,20,7.80
2017,03,31,11,21,7.80
2017,03,31,11,22,7.80
2017,03,31,11,23,7.80
2017,03,31,11,24,7.80
2017,03,31,11,25,7.80
2017,03,31,11,26,7.80
2017,03,31,11,27,7.80
2017,03,31,11,28,7.80
2017,03,31,11,29,7.80
2017,03,31,11,30,7.80
2017,03,31,11,31,7.80
2017,03,31,11,32,7.90
2017,03,31,11,33,7.90
2017,03,31,11,34,7.90
2017,03,31,11,35,7.90
2017,03,31,11,36,8.00
2017,03,31,11,37,8.00
2017,03,31,11,38,8.00
2017,03,31,11,39,8.10
2017,03,31,11,40,8.10
2017,03,31,11,41,8.10
2017,03,31,11,42,8.20
2017,03,31,11,43,8.20
2017,03,31,11,44,8.20
2017,03,31,11,45,8.20
2017,03,31,11,46,8.20
2017,03,31,11,47,8.30
2017,03,31,11,48,8.30
2017,03,31,11,49,8.20
2017,03,31,11,50,8.20
2017,03,31,11,51,8.20
2017,03,31,11,52,8.20
2017,03,31,11,53,8.30
2017,03,31,11,54,8.30
2017,03,31,11,55,8.30
2017,03,31,11,56,8.40
2017,03,31,11,57,8.40
2017,03,31,11,58,8.40
2017,03,31,11,59,8.50
2017,03,31,12,00,8.50
2017,03,31,12,01,8.60
2017,03,31,12,02,8.60
2017,03,31,12,03,8.60
2017,03,31,12,04,8.60
2017,03,31,12,05,8.70
2017,03,31,12,06,8.70
2017,03,31,12,07,8.70
2017,03,31,12,08,8.70
2017,03,31,12,09,8.70
2017,03,31,12,10,8.70
2017,03,31,12,11,8.70
2017,03,31,12,12,8.70
2017,03,31,12,13,8.80
2017,03,31,12,14,8.80
2017,03,31,12,15,8.80
2017,03,31,12,16,8.70
2017,03,31,12,17,8.80
2017,03,31,12,18,8.80
2017,03,31,12,19,8.80
2017,03,31,12,20,8.80
2017,03,31,12,21,8.80
2017,03,31,12,22,8.80
2017,03,31,12,23,8.80
2017,03,31,12,24,8.80
2017,03,31,12,25,8.90
2017,03,31,12,26,8.90
2017,03,31,12,27,8.90
2017,03,31,12,28,8.90
2017,03,31,12,29,8.90
2017,03,31,12,30,8.90
2017,03,31,12,31,8.90
2017,03,31,12,32,9.00
2017,03,31,12,33,9.00
2017,03,31,12,34,9.00
2017,03,31,12,35,9.10
2017,03,31,12,36,9.10
2017,03,31,12,37,9.10
2017,03,31,12,38,9.10
2017,03,31,12,39,9.10
2017,03,31,12,40,9.10
2017,03,31,12,41,9.10
2017,03,31,12,42,9.20
2017,03,31,12,43,9.20
2017,03,31,12,44,9.20
2017,03,31,12,45,9.20
2017,03,31,12,46,9.20
2017,03,31,12,47,9.20
2017,03,31,12,48,9.30
2017,03,31,12,49,9.30
2017,03,31,12,50,9.30
2017,03,31,12,51,9.30
2017,03,31,12,52,9.30
2017,03,31,12,53,9.40
2017,03,31,12,54,9.40
2017,03,31,12,55,9.40
2017,03,31,12,56,9.50
2017,03,31,12,57,9.50
2017,03,31,12,58,9.50
2017,03,31,12,59,9.50
2017,03,31,13,00,9.50
2017,03,31,13,01,9.60
2017,03,31,13,02,9.60
2017,03,31,13,03,9.50
2017,03,31,13,04,9.50
2017,03,31,13,05,9.50
2017,03,31,13,06,9.60
2017,03,31,13,07,9.60
2017,03,31,13,08,9.60
2017,03,31,13,09,9.60
2017,03,31,13,10,9.60
2017,03,31,13,11,9.60
2017,03,31,13,12,9.60
2017,03,31,13,13,9.60
2017,03,31,13,14,9.60
2017,03,31,13,15,9.60
2017,03,31,13,16,9.60
2017,03,31,13,17,9.50
2017,03,31,13,18,9.50
2017,03,31,13,19,9.40
2017,03,31,13,20,9.40
2017,03,31,13,21,9.40
2017,03,31,13,22,9.40
2017,03,31,13,23,9.40
2017,03,31,13,24,9.50
2017,03,31,13,25,9.50
2017,03,31,13,26,9.50
2017,03,31,13,27,9.60
2017,03,31,13,28,9.60
2017,03,31,13,29,9.60
2017,03,31,13,30,9.60
2017,03,31,13,31,9.60
2017,03,31,13,32,9.70
2017,03,31,13,33,9.70
2017,03,31,13,34,9.70
2017,03,31,13,35,9.80
2017,03,31,13,36,9.80
2017,03,31,13,37,9.70
2017,03,31,13,38,9.70
2017,03,31,13,39,9.70
2017,03,31,13,40,9.70
2017,03,31,13,41,9.60
2017,03,31,13,42,9.60
2017,03,31,13,43,9.50
2017,03,31,13,44,9.50
2017,03,31,13,45,9.50
2017,03,31,13,46,9.50
2017,03,31,13,47,9.50
2017,03,31,13,48,9.50
2017,03,31,13,49,9.50
2017,03,31,13,50,9.50
2017,03,31,13,51,9.50
2017,03,31,13,52,9.50
2017,03,31,13,53,9.50
2017,03,31,13,54,9.40
2017,03,31,13,55,9.40
2017,03,31,13,56,9.40
2017,03,31,13,57,9.40
2017,03,31,13,58,9.40
2017,03,31,13,59,9.40
2017,03,31,14,00,9.40
2017,03,31,14,01,9.30
2017,03,31,14,02,9.30
2017,03,31,14,03,9.30
2017,03,31,14,04,9.20
2017,03,31,14,05,9.20
2017,03,31,14,06,9.20
2017,03,31,14,07,9.20
2017,03,31,14,08,9.20
2017,03,31,14,09,9.30
2017,03,31,14,10,9.30
2017,03,31,14,11,9.30
2017,03,31,14,12,9.30
2017,03,31,14,13,9.30
2017,03,31,14,14,9.30
2017,03,31,14,15,9.30
2017,03,31,14,16,9.30
2017,03,31,14,17,9.30
2017,03,31,14,18,9.30
2017,03,31,14,19,9.30
2017,03,31,14,20,9.30
2017,03,31,14,21,9.30
2017,03,31,14,22,9.30
2017,03,31,14,23,9.30
2017,03,31,14,24,9.30
2017,03,31,14,25,9.30
2017,03,31,14,26,9.30
2017,03,31,14,27,9.30
2017,03,31,14,28,9.40
2017,03,31,14,29,9.40
2017,03,31,14,30,9.40
2017,03,31,14,31,9.40
2017,03,31,14,32,9.40
2017,03,31,14,33,9.40
2017,03,31,14,34,9.30
2017,03,31,14,35,9.40
2017,03,31,14,36,9.40
2017,03,31,14,37,9.40
2017,03,31,14,38,9.40
2017,03,31,14,39,9.40
2017,03,31,14,40,9.40
2017,03,31,14,41,9.40
2017,03,31,14,42,9.40
2017,03,31,14,43,9.40
2017,03,31,14,44,9.40
2017,03,31,14,45,9.50
2017,03,31,14,46,9.50
2017,03,31,14,47,9.50
2017,03,31,14,48,9.50
2017,03,31,14,49,9.60
2017,03,31,14,50,9.50
2017,03,31,14,51,9.50
2017,03,31,14,52,9.50
2017,03,31,14,53,9.50
2017,03,31,14,54,9.40
2017,03,31,14,55,9.40
2017,03,31,14,56,9.40
2017,03,31,14,57,9.40
2017,03,31,14,58,9.40
2017,03,31,14,59,9.30
2017,03,31,15,00,9.30
2017,03,31,15,01,9.30
2017,03,31,15,02,9.30
2017,03,31,15,03,9.30
2017,03,31,15,04,9.30
2017,03,31,15,05,9.30
2017,03,31,15,06,9.30
2017,03,31,15,07,9.30
2017,03,31,15,08,9.30
2017,03,31,15,09,9.30
2017,03,31,15,10,9.30
2017,03,31,15,11,9.30
2017,03,31,15,12,9.40
2017,03,31,15,13,9.40
2017,03,31,15,14,9.40
2017,03,31,15,15,9.40
2017,03,31,15,16,9.50
2017,03,31,15,17,9.50
2017,03,31,15,18,9.60
2017,03,31,15,19,9.60
2017,03,31,15,20,9.60
2017,03,31,15,21,9.60
2017,03,31,15,22,9.60
2017,03,31,15,23,9.60
2017,03,31,15,24,9.60
2017,03,31,15,25,9.50
2017,03,31,15,26,9.50
2017,03,31,15,27,9.50
2017,03,31,15,28,9.40
2017,03,31,15,29,9.40
2017,03,31,15,30,9.40
2017,03,31,15,31,9.40
2017,03,31,15,32,9.40
2017,03,31,15,33,9.40
2017,03,31,15,34,9.40
2017,03,31,15,35,9.30
2017,03,31,15,36,9.30
2017,03,31,15,37,9.30
2017,03,31,15,38,9.30
2017,03,31,15,39,9.20
2017,03,31,15,40,9.20
2017,03,31,15,41,9.20
2017,03,31,15,42,9.10
2017,03,31,15,43,9.10
2017,03,31,15,44,9.10
2017,03,31,15,45,9.00
2017,03,31,15,46,9.00
2017,03,31,15,47,8.90
2017,03,31,15,48,8.80
2017,03,31,15,49,8.80
2017,03,31,15,50,8.80
2017,03,31,15,51,8.80
2017,03,31,15,52,8.80
2017,03,31,15,53,8.80
2017,03,31,15,54,8.80
2017,03,31,15,55,8.70
2017,03,31,15,56,8.70
2017,03,31,15,57,8.70
2017,03,31,15,58,8.70
2017,03,31,15,59,8.70
2017,03,31,16,00,8.70
2017,03,31,16,01,8.70
2017,03,31,16,02,8.70
2017,03,31,16,03,8.80
2017,03,31,16,04,8.80
2017,03,31,16,05,8.80
2017,03,31,16,06,8.80
2017,03,31,16,07,8.70
2017,03,31,16,08,8.70
2017,03,31,16,09,8.80
2017,03,31,16,10,8.80
2017,03,31,16,11,8.80
2017,03,31,16,12,8.80
2017,03,31,16,13,8.80
2017,03,31,16,14,8.80
2017,03,31,16,15,8.80
2017,03,31,16,16,8.80
2017,03,31,16,17,8.70
2017,03,31,16,18,8.70
2017,03,31,16,19,8.70
2017,03,31,16,20,8.70
2017,03,31,16,21,8.70
2017,03,31,16,22,8.70
2017,03,31,16,23,8.70
2017,03,31,16,24,8.70
2017,03,31,16,25,8.70
2017,03,31,16,26,8.70
2017,03,31,16,27,8.70
2017,03,31,16,28,8.70
2017,03,31,16,29,8.60
2017,03,31,16,30,8.60
2017,03,31,16,31,8.60
2017,03,31,16,32,8.60
2017,03,31,16,33,8.60
2017,03,31,16,34,8.60
2017,03,31,16,35,8.60
2017,03,31,16,36,8.50
2017,03,31,16,37,8.50
2017,03,31,16,38,8.50
2017,03,31,16,39,8.50
2017,03,31,16,40,8.50
2017,03,31,16,41,8.50
2017,03,31,16,42,8.50
2017,03,31,16,43,8.50
2017,03,31,16,44,8.50
2017,03,31,16,45,8.50
2017,03,31,16,46,8.50
2017,03,31,16,47,8.50
2017,03,31,16,48,8.50
2017,03,31,16,49,8.60
2017,03,31,16,50,8.60
2017,03,31,16,51,8.60
2017,03,31,16,52,8.60
2017,03,31,16,53,8.60
2017,03,31,16,54,8.60
2017,03,31,16,55,8.60
2017,03,31,16,56,8.60
2017,03,31,16,57,8.70
2017,03,31,16,58,8.70
2017,03,31,16,59,8.70
2017,03,31,17,00,8.70
2017,03,31,17,01,8.70
2017,03,31,17,02,8.70
2017,03,31,17,03,8.70
2017,03,31,17,04,8.70
2017,03,31,17,05,8.70
2017,03,31,17,06,8.70
2017,03,31,17,07,8.60
2017,03,31,17,08,8.60
2017,03,31,17,09,8.60
2017,03,31,17,10,8.60
2017,03,31,17,11,8.60
2017,03,31,17,12,8.60
2017,03,31,17,13,8.60
2017,03,31,17,14,8.60
2017,03,31,17,15,8.60
2017,03,31,17,16,8.60
2017,03,31,17,17,8.60
2017,03,31,17,18,8.60
2017,03,31,17,19,8.60
2017,03,31,17,20,8.60
2017,03,31,17,21,8.60
2017,03,31,17,22,8.60
2017,03,31,17,23,8.60
2017,03,31,17,24,8.60
2017,03,31,17,25,8.60
2017,03,31,17,26,8.70
2017,03,31,17,27,8.70
2017,03,31,17,28,8.70
2017,03,31,17,29,8.70
2017,03,31,17,30,8.70
2017,03,31,17,31,8.70
2017,03,31,17,32,8.70
2017,03,31,17,33,8.70
2017,03,31,17,34,8.70
2017,03,31,17,35,8.70
2017,03,31,17,36,8.70
2017,03,31,17,37,8.70
2017,03,31,17,38,8.70
2017,03,31,17,39,8.70
2017,03,31,17,40,8.70
2017,03,31,17,41,8.70
2017,03,31,17,42,8.70
2017,03,31,17,43,8.70
2017,03,31,17,44,8.70
2017,03,31,17,45,8.70
2017,03,31,17,46,8.80
2017,03,31,17,47,8.80
2017,03,31,17,48,8.80
2017,03,31,17,49,8.80
2017,03,31,17,50,8.80
2017,03,31,17,51,8.80
2017,03,31,17,52,8.80
2017,03,31,17,53,8.80
2017,03,31,17,54,8.70
2017,03,31,17,55,8.70
2017,03,31,17,56,8.70
2017,03,31,17,57,8.70
2017,03,31,17,58,8.70
2017,03,31,17,59,8.70
2017,03,31,18,00,8.70
2017,03,31,18,01,8.70
2017,03,31,18,02,8.70
2017,03,31,18,03,8.70
2017,03,31,18,04,8.70
2017,03,31,18,05,8.70
2017,03,31,18,06,8.70